Weather History for Ohio State University, OH

Change the Weather History Date:

Saturday, February 9, 2013

  Actual Average Record
Temperature  
Mean Temperature 26 °F -  
Max Temperature 35 °F 38 °F 66 °F (2001)
Min Temperature 18 °F 23 °F 1 °F (2007)
Degree Days  
Heating Degree Days 38    
Moisture  
Dew Point 17 °F    
Average Humidity 71    
Maximum Humidity 89    
Minimum Humidity 46    
Precipitation  
Precipitation 0.00 in - - ()
Sea Level Pressure  
Sea Level Pressure 30.38 in    
Wind  
Wind Speed 4 mph (NE)    
Max Wind Speed 7 mph    
Max Gust Speed -    
Visibility 10 miles    
Events      
Averages and records for this station are not official NWS values.
T = Trace of Precipitation, MM = Missing Value Source: NWS Daily Summary

Daily Weather History Graph

Daily Weather History Graph

Search for Another Location

Airport:

Trip Planner

Search our weather history database for the weather conditions in past years. The results will help you decide how hot, cold, wet, or windy it might be!

Date:

Astronomy

Feb. 09, 2013 Rise Set
Actual Time 7:32 AM EST 6:01 PM EST
Civil Twilight 7:04 AM EST 6:29 PM EST
Nautical Twilight 6:32 AM EST 7:01 PM EST
Astronomical Twilight 6:00 AM EST 7:33 PM EST
Moon 6:43 AM EST (2/9) 5:42 PM EST (2/9)
Length of Visible Light 11h 25m
Length of Day
10h 29m
Waning Crescent, 0% of the Moon is Illuminated
Feb 9
Waning Crescent
Feb 10
New
Feb 17
First Quarter
Feb 25
Full
Mar 4
Last Quarter

Hourly Weather History & Observations

Time (EST) Temp. Windchill Dew Point Humidity Pressure Visibility Wind Dir Wind Speed Gust Speed Precip Events Conditions
12:03 AM 23.0 °F 17.0 °F 17.6 °F 80% 30.30 in 10.0 mi NNW 4.6 mph - N/A   Scattered Clouds
12:53 AM 23.0 °F 14.7 °F 18.0 °F 81% 30.34 in 10.0 mi North 6.9 mph - N/A   Partly Cloudy
1:08 AM 23.0 °F 17.0 °F 17.6 °F 80% 30.31 in 10.0 mi NNW 4.6 mph - N/A   Mostly Cloudy
1:46 AM 21.2 °F 13.6 °F 17.6 °F 86% 30.32 in 10.0 mi NNW 5.8 mph - N/A   Partly Cloudy
1:53 AM 21.9 °F 14.5 °F 18.0 °F 85% 30.36 in 10.0 mi North 5.8 mph - N/A   Partly Cloudy
2:53 AM 19.9 °F 13.4 °F 17.1 °F 89% 30.37 in 10.0 mi NNW 4.6 mph - N/A   Clear
3:53 AM 21.0 °F 12.4 °F 17.1 °F 85% 30.38 in 10.0 mi NW 6.9 mph - N/A   Mostly Cloudy
4:53 AM 19.9 °F 13.4 °F 16.0 °F 85% 30.40 in 10.0 mi NW 4.6 mph - N/A   Scattered Clouds
5:53 AM 19.0 °F - 16.0 °F 88% 30.40 in 9.0 mi Calm Calm - N/A   Clear
6:53 AM 18.0 °F 12.7 °F 15.1 °F 88% 30.42 in 9.0 mi NNW 3.5 mph - N/A   Clear
7:53 AM 18.0 °F 12.7 °F 15.1 °F 88% 30.44 in 8.0 mi NW 3.5 mph - N/A   Clear
8:53 AM 23.0 °F - 18.0 °F 81% 30.46 in 10.0 mi Calm Calm - N/A   Clear
9:53 AM 25.0 °F 18.1 °F 19.0 °F 78% 30.45 in 10.0 mi East 5.8 mph - N/A   Scattered Clouds
10:53 AM 27.0 °F 23.0 °F 18.0 °F 69% 30.44 in 10.0 mi Variable 3.5 mph - N/A   Scattered Clouds
11:53 AM 30.0 °F 24.1 °F 18.0 °F 61% 30.43 in 10.0 mi NE 5.8 mph - N/A   Clear
12:53 PM 32.0 °F - 18.0 °F 56% 30.41 in 10.0 mi Calm Calm - N/A   Clear
1:53 PM 34.0 °F - 18.0 °F 52% 30.40 in 10.0 mi Calm Calm - N/A   Clear
2:53 PM 35.1 °F - 16.0 °F 46% 30.38 in 10.0 mi Calm Calm - N/A   Clear
3:53 PM 35.1 °F - 16.0 °F 46% 30.37 in 10.0 mi Calm Calm - N/A   Clear
4:53 PM 35.1 °F 32.2 °F 17.1 °F 48% 30.35 in 10.0 mi ESE 3.5 mph - N/A   Clear
5:53 PM 33.1 °F 26.9 °F 17.1 °F 52% 30.36 in 10.0 mi SE 6.9 mph - N/A   Clear
6:53 PM 30.0 °F 25.2 °F 18.0 °F 61% 30.36 in 10.0 mi ESE 4.6 mph - N/A   Clear
7:53 PM 27.0 °F 21.6 °F 17.1 °F 66% 30.37 in 10.0 mi East 4.6 mph - N/A   Clear
8:53 PM 28.0 °F 24.2 °F 17.1 °F 63% 30.36 in 10.0 mi East 3.5 mph - N/A   Clear
9:53 PM 26.1 °F 20.5 °F 17.1 °F 69% 30.34 in 10.0 mi ESE 4.6 mph - N/A   Clear
10:53 PM 27.0 °F 20.5 °F 17.1 °F 66% 30.31 in 10.0 mi ESE 5.8 mph - N/A   Clear
11:53 PM 26.1 °F 20.5 °F 17.1 °F 69% 30.30 in 10.0 mi ESE 4.6 mph - N/A   Clear